Wetterdaten: Mittwoch, 01.10.2014
Datum Zeit Temp. A. Feuchte A. Luftdruck Regen Wind Richtung Richtung Sonnenschein ET UV Solar Taupunkt Windchill Windben Empfang
01.10.2014 00:00 15,2 C 85 % 1023,8 hPa 0,0 l/m 0,0 km/h (0 Bft) S 188 0 min 0,000 mm 0,0 UV-I 0 W/m 12,7 C 15,2 C 0,0 km/h (0 Bft) 0,00 %
01.10.2014 00:15 15,2 C 85 % 1023,8 hPa 0,0 l/m 0,0 km/h (0 Bft) S 172 0 min 0,000 mm 0,0 UV-I 0 W/m 12,7 C 15,2 C 0,0 km/h (0 Bft) 0,00 %
01.10.2014 00:30 15,2 C 86 % 1023,7 hPa 0,0 l/m 0,0 km/h (0 Bft) S-SW 212 0 min 0,000 mm 0,0 UV-I 0 W/m 12,9 C 15,2 C 0,0 km/h (0 Bft) 0,00 %
01.10.2014 00:45 15,3 C 86 % 1023,9 hPa 0,0 l/m 0,0 km/h (0 Bft) NW 319 0 min 0,000 mm 0,0 UV-I 0 W/m 13,0 C 15,3 C 0,0 km/h (0 Bft) 0,00 %
01.10.2014 01:00 15,3 C 86 % 1024,0 hPa 0,3 l/m 0,0 km/h (0 Bft) SW 231 0 min 0,000 mm 0,0 UV-I 0 W/m 13,0 C 15,3 C 0,0 km/h (0 Bft) 0,00 %
01.10.2014 01:15 15,2 C 86 % 1024,0 hPa 0,0 l/m 0,0 km/h (0 Bft) W-SW 250 0 min 0,000 mm 0,0 UV-I 0 W/m 12,9 C 15,2 C 0,0 km/h (0 Bft) 0,00 %
01.10.2014 01:30 15,1 C 86 % 1024,1 hPa 0,0 l/m 0,0 km/h (0 Bft) S-SW 211 0 min 0,000 mm 0,0 UV-I 0 W/m 12,8 C 15,1 C 0,0 km/h (0 Bft) 0,00 %
01.10.2014 01:45 15,1 C 86 % 1024,3 hPa 0,6 l/m 0,0 km/h (0 Bft) O-SO 123 0 min 0,000 mm 0,0 UV-I 0 W/m 12,8 C 15,1 C 0,0 km/h (0 Bft) 0,00 %
01.10.2014 02:00 15,0 C 87 % 1024,2 hPa 0,9 l/m 0,0 km/h (0 Bft) SW 221 0 min 0,000 mm 0,0 UV-I 0 W/m 12,9 C 15,0 C 0,0 km/h (0 Bft) 0,00 %
01.10.2014 02:15 14,9 C 87 % 1024,3 hPa 0,9 l/m 0,0 km/h (0 Bft) S-SW 208 0 min 0,000 mm 0,0 UV-I 0 W/m 12,8 C 14,9 C 0,0 km/h (0 Bft) 0,00 %
01.10.2014 02:30 14,9 C 87 % 1024,1 hPa 0,9 l/m 0,0 km/h (0 Bft) S-SW 204 0 min 0,000 mm 0,0 UV-I 0 W/m 12,8 C 14,9 C 0,0 km/h (0 Bft) 0,00 %
01.10.2014 02:45 14,8 C 87 % 1024,2 hPa 0,6 l/m 0,0 km/h (0 Bft) S-SW 213 0 min 0,000 mm 0,0 UV-I 0 W/m 12,7 C 14,8 C 0,0 km/h (0 Bft) 0,00 %
01.10.2014 03:00 14,8 C 87 % 1024,2 hPa 0,6 l/m 0,0 km/h (0 Bft) SW 223 0 min 0,000 mm 0,0 UV-I 0 W/m 12,7 C 14,8 C 0,0 km/h (0 Bft) 0,00 %
01.10.2014 03:15 14,8 C 87 % 1024,3 hPa 0,3 l/m 0,0 km/h (0 Bft) SW 226 0 min 0,000 mm 0,0 UV-I 0 W/m 12,7 C 14,8 C 0,0 km/h (0 Bft) 0,00 %
01.10.2014 03:30 14,8 C 87 % 1024,4 hPa 0,0 l/m 0,0 km/h (0 Bft) O-SO 114 0 min 0,000 mm 0,0 UV-I 0 W/m 12,7 C 14,8 C 0,0 km/h (0 Bft) 0,00 %
01.10.2014 03:45 14,7 C 87 % 1024,3 hPa 0,0 l/m 0,0 km/h (0 Bft) S-SW 202 0 min 0,000 mm 0,0 UV-I 0 W/m 12,6 C 14,7 C 0,0 km/h (0 Bft) 0,00 %
01.10.2014 04:00 14,5 C 88 % 1024,3 hPa 0,3 l/m 0,0 km/h (0 Bft) W-SW 255 0 min 0,000 mm 0,0 UV-I 0 W/m 12,5 C 14,5 C 0,0 km/h (0 Bft) 0,00 %
01.10.2014 04:15 14,4 C 87 % 1024,2 hPa 0,3 l/m 0,0 km/h (0 Bft) W-SW 252 0 min 0,000 mm 0,0 UV-I 0 W/m 12,3 C 14,4 C 0,0 km/h (0 Bft) 0,00 %
01.10.2014 04:30 14,1 C 87 % 1024,4 hPa 0,0 l/m 0,0 km/h (0 Bft) S 183 0 min 0,000 mm 0,0 UV-I 0 W/m 12,0 C 14,1 C 0,0 km/h (0 Bft) 0,00 %
01.10.2014 04:45 14,0 C 86 % 1024,2 hPa 0,3 l/m 0,0 km/h (0 Bft) S 175 0 min 0,000 mm 0,0 UV-I 0 W/m 11,7 C 14,0 C 0,0 km/h (0 Bft) 0,00 %
01.10.2014 05:00 13,8 C 86 % 1024,2 hPa 0,0 l/m 0,0 km/h (0 Bft) S-SW 192 0 min 0,000 mm 0,0 UV-I 0 W/m 11,5 C 13,8 C 0,0 km/h (0 Bft) 0,00 %
01.10.2014 05:15 13,8 C 87 % 1024,1 hPa 0,0 l/m 0,0 km/h (0 Bft) S-SW 206 0 min 0,000 mm 0,0 UV-I 0 W/m 11,7 C 13,8 C 0,0 km/h (0 Bft) 0,00 %
01.10.2014 05:30 13,8 C 87 % 1024,1 hPa 0,0 l/m 0,0 km/h (0 Bft) SW 225 0 min 0,000 mm 0,0 UV-I 0 W/m 11,7 C 13,8 C 0,0 km/h (0 Bft) 0,00 %
01.10.2014 05:45 13,8 C 87 % 1024,1 hPa 0,0 l/m 0,0 km/h (0 Bft) SO 141 0 min 0,000 mm 0,0 UV-I 0 W/m 11,7 C 13,8 C 0,0 km/h (0 Bft) 0,00 %
01.10.2014 06:00 13,9 C 87 % 1024,1 hPa 0,3 l/m 0,0 km/h (0 Bft) W-SW 253 0 min 0,000 mm 0,0 UV-I 0 W/m 11,8 C 13,9 C 0,0 km/h (0 Bft) 0,00 %
01.10.2014 06:15 13,9 C 88 % 1023,9 hPa 0,0 l/m 0,0 km/h (0 Bft) W-SW 253 0 min 0,000 mm 0,0 UV-I 0 W/m 11,9 C 13,9 C 0,0 km/h (0 Bft) 0,00 %
01.10.2014 06:30 13,8 C 87 % 1024,0 hPa 0,3 l/m 0,0 km/h (0 Bft) S-SW 203 0 min 0,000 mm 0,0 UV-I 0 W/m 11,7 C 13,8 C 0,0 km/h (0 Bft) 0,00 %
01.10.2014 06:45 13,7 C 87 % 1023,8 hPa 0,0 l/m 0,0 km/h (0 Bft) S-SW 201 0 min 0,000 mm 0,0 UV-I 0 W/m 11,6 C 13,7 C 0,0 km/h (0 Bft) 0,00 %
01.10.2014 07:00 13,7 C 86 % 1023,9 hPa 0,3 l/m 0,0 km/h (0 Bft) SO 130 0 min 0,000 mm 0,0 UV-I 0 W/m 11,4 C 13,7 C 0,0 km/h (0 Bft) 0,00 %
01.10.2014 07:15 13,7 C 87 % 1024,1 hPa 0,0 l/m 0,0 km/h (0 Bft) S 179 0 min 0,000 mm 0,0 UV-I 0 W/m 11,6 C 13,7 C 0,0 km/h (0 Bft) 0,00 %
01.10.2014 07:30 13,8 C 87 % 1024,1 hPa 0,3 l/m 0,0 km/h (0 Bft) W-SW 244 0 min 0,000 mm 0,0 UV-I 11 W/m 11,7 C 13,8 C 0,0 km/h (0 Bft) 0,00 %
01.10.2014 07:45 13,9 C 87 % 1024,1 hPa 0,0 l/m 0,0 km/h (0 Bft) S-SW 202 0 min 0,000 mm 0,0 UV-I 19 W/m 11,8 C 13,9 C 0,0 km/h (0 Bft) 0,00 %
01.10.2014 08:00 14,0 C 87 % 1024,1 hPa 0,0 l/m 0,0 km/h (0 Bft) S 187 0 min 0,000 mm 0,0 UV-I 32 W/m 11,9 C 14,0 C 0,0 km/h (0 Bft) 0,00 %
01.10.2014 08:15 14,1 C 87 % 1024,1 hPa 0,0 l/m 0,0 km/h (0 Bft) S 180 0 min 0,000 mm 0,0 UV-I 26 W/m 12,0 C 14,1 C 0,0 km/h (0 Bft) 0,00 %
01.10.2014 08:30 14,1 C 87 % 1024,3 hPa 0,0 l/m 0,0 km/h (0 Bft) S 186 0 min 0,000 mm 0,0 UV-I 36 W/m 12,0 C 14,1 C 0,0 km/h (0 Bft) 0,00 %
01.10.2014 08:45 14,3 C 87 % 1024,0 hPa 0,3 l/m 0,0 km/h (0 Bft) S-SW 197 0 min 0,000 mm 0,0 UV-I 39 W/m 12,2 C 14,3 C 0,0 km/h (0 Bft) 0,00 %
01.10.2014 09:00 14,4 C 85 % 1024,2 hPa 0,0 l/m 0,0 km/h (0 Bft) W-SW 253 0 min 0,000 mm 0,0 UV-I 52 W/m 11,9 C 14,4 C 0,0 km/h (0 Bft) 0,00 %
01.10.2014 09:15 14,5 C 85 % 1024,5 hPa 0,3 l/m 0,0 km/h (0 Bft) S-SW 199 0 min 0,000 mm 1,0 UV-I 64 W/m 12,0 C 14,5 C 0,0 km/h (0 Bft) 0,00 %
01.10.2014 09:30 14,6 C 85 % 1024,4 hPa 0,0 l/m 0,0 km/h (0 Bft) SW 224 0 min 0,000 mm 1,0 UV-I 61 W/m 12,1 C 14,6 C 0,0 km/h (0 Bft) 0,00 %
01.10.2014 09:45 14,7 C 85 % 1024,6 hPa 0,3 l/m 0,0 km/h (0 Bft) S 191 0 min 0,000 mm 1,0 UV-I 66 W/m 12,2 C 14,7 C 0,0 km/h (0 Bft) 0,00 %
01.10.2014 10:00 14,8 C 84 % 1024,6 hPa 0,0 l/m 0,0 km/h (0 Bft) S 190 0 min 0,000 mm 1,0 UV-I 75 W/m 12,1 C 14,8 C 0,0 km/h (0 Bft) 0,00 %
01.10.2014 10:15 14,8 C 84 % 1024,6 hPa 0,0 l/m 0,0 km/h (0 Bft) S 185 0 min 0,000 mm 1,0 UV-I 68 W/m 12,1 C 14,8 C 0,0 km/h (0 Bft) 0,00 %
01.10.2014 10:30 14,9 C 84 % 1024,7 hPa 0,3 l/m 0,0 km/h (0 Bft) W-SW 253 0 min 0,000 mm 1,0 UV-I 115 W/m 12,2 C 14,9 C 0,0 km/h (0 Bft) 0,00 %
01.10.2014 10:45 15,3 C 83 % 1024,6 hPa 0,0 l/m 0,0 km/h (0 Bft) S-SW 198 0 min 0,000 mm 1,0 UV-I 159 W/m 12,4 C 15,3 C 0,0 km/h (0 Bft) 0,00 %
01.10.2014 11:00 15,7 C 82 % 1024,6 hPa 0,3 l/m 0,0 km/h (0 Bft) SO 133 0 min 0,000 mm 1,0 UV-I 164 W/m 12,6 C 15,7 C 0,0 km/h (0 Bft) 0,00 %
01.10.2014 11:15 15,9 C 81 % 1024,6 hPa 0,0 l/m 0,0 km/h (0 Bft) W-SW 255 0 min 0,000 mm 1,0 UV-I 149 W/m 12,6 C 15,9 C 0,0 km/h (0 Bft) 0,00 %
01.10.2014 11:30 16,2 C 81 % 1024,5 hPa 0,0 l/m 0,0 km/h (0 Bft) W-SW 256 0 min 0,000 mm 1,0 UV-I 184 W/m 12,9 C 16,2 C 0,0 km/h (0 Bft) 0,00 %
01.10.2014 11:45 16,3 C 81 % 1024,4 hPa 0,3 l/m 0,0 km/h (0 Bft) NW 304 0 min 0,000 mm 1,0 UV-I 172 W/m 13,0 C 16,3 C 0,0 km/h (0 Bft) 0,00 %
01.10.2014 12:00 16,5 C 80 % 1024,2 hPa 0,0 l/m 0,0 km/h (0 Bft) SW 219 0 min 0,000 mm 1,0 UV-I 177 W/m 13,0 C 16,5 C 0,0 km/h (0 Bft) 0,00 %
01.10.2014 12:15 16,6 C 80 % 1024,3 hPa 0,0 l/m 0,0 km/h (0 Bft) SW 218 0 min 0,000 mm 2,0 UV-I 209 W/m 13,1 C 16,6 C 0,0 km/h (0 Bft) 0,00 %
01.10.2014 12:30 17,0 C 79 % 1024,2 hPa 0,3 l/m 0,0 km/h (0 Bft) S 186 0 min 0,000 mm 1,0 UV-I 198 W/m 13,3 C 17,0 C 0,0 km/h (0 Bft) 0,00 %
01.10.2014 12:45 16,9 C 79 % 1024,2 hPa 0,0 l/m 0,0 km/h (0 Bft) S-SW 203 0 min 0,000 mm 1,0 UV-I 160 W/m 13,2 C 16,9 C 0,0 km/h (0 Bft) 0,00 %
01.10.2014 13:00 16,7 C 79 % 1024,3 hPa 0,3 l/m 0,0 km/h (0 Bft) S-SW 208 0 min 0,000 mm 2,0 UV-I 209 W/m 13,0 C 16,7 C 0,0 km/h (0 Bft) 0,00 %
01.10.2014 13:15 16,8 C 80 % 1024,1 hPa 0,3 l/m 0,0 km/h (0 Bft) SW 228 0 min 0,000 mm 3,0 UV-I 256 W/m 13,3 C 16,8 C 0,0 km/h (0 Bft) 0,00 %
01.10.2014 13:30 17,5 C 78 % 1023,8 hPa 0,0 l/m 0,0 km/h (0 Bft) W-SW 250 0 min 0,000 mm 2,0 UV-I 226 W/m 13,6 C 17,5 C 0,0 km/h (0 Bft) 0,00 %
01.10.2014 13:45 17,2 C 78 % 1023,7 hPa 0,0 l/m 0,0 km/h (0 Bft) W-SW 253 0 min 0,000 mm 2,0 UV-I 189 W/m 13,3 C 17,2 C 0,0 km/h (0 Bft) 0,00 %
01.10.2014 14:00 17,4 C 78 % 1023,5 hPa 0,0 l/m 0,0 km/h (0 Bft) SW 230 0 min 0,000 mm 2,0 UV-I 182 W/m 13,5 C 17,4 C 0,0 km/h (0 Bft) 0,00 %
01.10.2014 14:15 17,1 C 78 % 1023,6 hPa 0,0 l/m 0,0 km/h (0 Bft) S-SW 198 0 min 0,000 mm 2,0 UV-I 142 W/m 13,2 C 17,1 C 0,0 km/h (0 Bft) 0,00 %
01.10.2014 14:30 17,0 C 78 % 1023,5 hPa 0,0 l/m 0,0 km/h (0 Bft) SW 223 0 min 0,000 mm 2,0 UV-I 219 W/m 13,1 C 17,0 C 0,0 km/h (0 Bft) 0,00 %
01.10.2014 14:45 17,4 C 78 % 1023,5 hPa 0,0 l/m 0,0 km/h (0 Bft) SW 236 0 min 0,000 mm 2,0 UV-I 158 W/m 13,5 C 17,4 C 0,0 km/h (0 Bft) 0,00 %
01.10.2014 15:00 17,0 C 78 % 1023,4 hPa 0,3 l/m 0,0 km/h (0 Bft) W-NW 285 0 min 0,000 mm 1,0 UV-I 119 W/m 13,1 C 17,0 C 0,0 km/h (0 Bft) 0,00 %
01.10.2014 15:15 16,8 C 79 % 1023,4 hPa 0,0 l/m 0,0 km/h (0 Bft) W 281 0 min 0,000 mm 2,0 UV-I 199 W/m 13,1 C 16,8 C 0,0 km/h (0 Bft) 0,00 %
01.10.2014 15:30 17,0 C 79 % 1023,4 hPa 0,0 l/m 0,0 km/h (0 Bft) S 174 0 min 0,000 mm 1,0 UV-I 99 W/m 13,3 C 17,0 C 0,0 km/h (0 Bft) 0,00 %
01.10.2014 15:45 16,5 C 79 % 1023,7 hPa 0,3 l/m 0,0 km/h (0 Bft) S 178 0 min 0,000 mm 1,0 UV-I 48 W/m 12,8 C 16,5 C 0,0 km/h (0 Bft) 0,00 %
01.10.2014 16:00 16,1 C 81 % 1023,6 hPa 0,3 l/m 0,0 km/h (0 Bft) S-SW 210 0 min 0,000 mm 1,0 UV-I 47 W/m 12,8 C 16,1 C 0,0 km/h (0 Bft) 0,00 %
01.10.2014 16:15 16,0 C 82 % 1023,7 hPa 0,0 l/m 0,0 km/h (0 Bft) SW 215 0 min 0,000 mm 1,0 UV-I 70 W/m 12,9 C 16,0 C 0,0 km/h (0 Bft) 0,00 %
01.10.2014 16:30 16,0 C 82 % 1023,4 hPa 0,0 l/m 0,0 km/h (0 Bft) SW 216 0 min 0,000 mm 1,0 UV-I 71 W/m 12,9 C 16,0 C 0,0 km/h (0 Bft) 0,00 %
01.10.2014 16:45 16,0 C 82 % 1023,7 hPa 0,3 l/m 0,0 km/h (0 Bft) SW 220 0 min 0,000 mm 0,0 UV-I 37 W/m 12,9 C 16,0 C 0,0 km/h (0 Bft) 0,00 %
01.10.2014 17:00 15,7 C 82 % 1023,7 hPa 0,9 l/m 0,0 km/h (0 Bft) SW 220 0 min 0,000 mm 0,0 UV-I 12 W/m 12,6 C 15,7 C 0,0 km/h (0 Bft) 0,00 %
01.10.2014 17:15 15,3 C 83 % 1023,9 hPa 1,2 l/m 0,0 km/h (0 Bft) SW 216 0 min 0,000 mm 0,0 UV-I 18 W/m 12,4 C 15,3 C 0,0 km/h (0 Bft) 0,00 %
01.10.2014 17:30 15,1 C 84 % 1024,0 hPa 0,9 l/m 0,0 km/h (0 Bft) S-SW 200 0 min 0,000 mm 0,0 UV-I 10 W/m 12,4 C 15,1 C 0,0 km/h (0 Bft) 0,00 %
01.10.2014 17:45 15,1 C 85 % 1024,0 hPa 1,2 l/m 0,0 km/h (0 Bft) S 177 0 min 0,000 mm 0,0 UV-I 5 W/m 12,6 C 15,1 C 0,0 km/h (0 Bft) 0,00 %
01.10.2014 18:00 15,0 C 85 % 1024,0 hPa 1,5 l/m 0,0 km/h (0 Bft) S 182 0 min 0,000 mm 0,0 UV-I 0 W/m 12,5 C 15,0 C 0,0 km/h (0 Bft) 0,00 %
01.10.2014 18:15 15,0 C 86 % 1024,2 hPa 0,3 l/m 0,0 km/h (0 Bft) O 88 0 min 0,000 mm 0,0 UV-I 0 W/m 12,7 C 15,0 C 0,0 km/h (0 Bft) 0,00 %
01.10.2014 18:30 14,9 C 86 % 1024,2 hPa 0,3 l/m 0,0 km/h (0 Bft) SO 129 0 min 0,000 mm 0,0 UV-I 0 W/m 12,6 C 14,9 C 0,0 km/h (0 Bft) 0,00 %
01.10.2014 18:45 14,8 C 86 % 1024,4 hPa 6,3 l/m 0,0 km/h (0 Bft) S 175 0 min 0,000 mm 0,0 UV-I 0 W/m 12,5 C 14,8 C 0,0 km/h (0 Bft) 0,00 %
01.10.2014 19:00 14,8 C 86 % 1024,3 hPa 0,3 l/m 0,0 km/h (0 Bft) SO 137 0 min 0,000 mm 0,0 UV-I 0 W/m 12,5 C 14,8 C 0,0 km/h (0 Bft) 0,00 %
01.10.2014 19:15 14,7 C 87 % 1024,4 hPa 0,0 l/m 0,0 km/h (0 Bft) S 172 0 min 0,000 mm 0,0 UV-I 0 W/m 12,6 C 14,7 C 0,0 km/h (0 Bft) 0,00 %
01.10.2014 19:30 14,6 C 87 % 1024,6 hPa 0,0 l/m 0,0 km/h (0 Bft) S-SO 168 0 min 0,000 mm 0,0 UV-I 0 W/m 12,5 C 14,6 C 0,0 km/h (0 Bft) 0,00 %
01.10.2014 19:45 14,6 C 87 % 1024,6 hPa 0,0 l/m 0,0 km/h (0 Bft) S 169 0 min 0,000 mm 0,0 UV-I 0 W/m 12,5 C 14,6 C 0,0 km/h (0 Bft) 0,00 %
01.10.2014 20:00 14,5 C 87 % 1024,5 hPa 0,0 l/m 0,0 km/h (0 Bft) S 189 0 min 0,000 mm 0,0 UV-I 0 W/m 12,4 C 14,5 C 0,0 km/h (0 Bft) 0,00 %
01.10.2014 20:15 14,5 C 87 % 1024,7 hPa 0,0 l/m 0,0 km/h (0 Bft) S 188 0 min 0,000 mm 0,0 UV-I 0 W/m 12,4 C 14,5 C 0,0 km/h (0 Bft) 0,00 %
01.10.2014 20:30 14,5 C 87 % 1024,7 hPa 0,0 l/m 0,0 km/h (0 Bft) S 188 0 min 0,000 mm 0,0 UV-I 0 W/m 12,4 C 14,5 C 0,0 km/h (0 Bft) 0,00 %
01.10.2014 20:45 14,4 C 88 % 1024,8 hPa 0,0 l/m 0,0 km/h (0 Bft) S 188 0 min 0,000 mm 0,0 UV-I 0 W/m 12,4 C 14,4 C 0,0 km/h (0 Bft) 0,00 %
01.10.2014 21:00 14,3 C 88 % 1025,0 hPa 0,0 l/m 0,0 km/h (0 Bft) S 188 0 min 0,000 mm 0,0 UV-I 0 W/m 12,3 C 14,3 C 0,0 km/h (0 Bft) 0,00 %
01.10.2014 21:15 14,2 C 88 % 1025,2 hPa 0,0 l/m 0,0 km/h (0 Bft) S-SW 198 0 min 0,000 mm 0,0 UV-I 0 W/m 12,2 C 14,2 C 0,0 km/h (0 Bft) 0,00 %
01.10.2014 21:30 14,3 C 88 % 1025,3 hPa 0,0 l/m 0,0 km/h (0 Bft) W-SW 251 0 min 0,000 mm 0,0 UV-I 0 W/m 12,3 C 14,3 C 0,0 km/h (0 Bft) 0,00 %
01.10.2014 21:45 14,4 C 88 % 1025,3 hPa 0,0 l/m 0,0 km/h (0 Bft) W-SW 254 0 min 0,000 mm 0,0 UV-I 0 W/m 12,4 C 14,4 C 0,0 km/h (0 Bft) 0,00 %
01.10.2014 22:00 14,5 C 88 % 1025,4 hPa 0,0 l/m 0,0 km/h (0 Bft) S-SW 197 0 min 0,000 mm 0,0 UV-I 0 W/m 12,5 C 14,5 C 0,0 km/h (0 Bft) 0,00 %
01.10.2014 22:15 14,6 C 88 % 1025,4 hPa 0,0 l/m 0,0 km/h (0 Bft) S-SW 206 0 min 0,000 mm 0,0 UV-I 0 W/m 12,6 C 14,6 C 0,0 km/h (0 Bft) 0,00 %
01.10.2014 22:30 14,5 C 88 % 1025,1 hPa 0,0 l/m 0,0 km/h (0 Bft) S 182 0 min 0,000 mm 0,0 UV-I 0 W/m 12,5 C 14,5 C 0,0 km/h (0 Bft) 0,00 %
01.10.2014 22:45 14,4 C 89 % 1025,4 hPa 0,0 l/m 0,0 km/h (0 Bft) S-SW 201 0 min 0,000 mm 0,0 UV-I 0 W/m 12,6 C 14,4 C 0,0 km/h (0 Bft) 0,00 %
01.10.2014 23:00 14,4 C 89 % 1025,5 hPa 0,0 l/m 0,0 km/h (0 Bft) S-SW 194 0 min 0,000 mm 0,0 UV-I 0 W/m 12,6 C 14,4 C 0,0 km/h (0 Bft) 0,00 %
01.10.2014 23:15 14,3 C 89 % 1025,3 hPa 0,0 l/m 0,0 km/h (0 Bft) S 179 0 min 0,000 mm 0,0 UV-I 0 W/m 12,5 C 14,3 C 0,0 km/h (0 Bft) 0,00 %
01.10.2014 23:30 14,1 C 89 % 1025,5 hPa 0,0 l/m 0,0 km/h (0 Bft) S-SW 194 0 min 0,000 mm 0,0 UV-I 0 W/m 12,3 C 14,1 C 0,0 km/h (0 Bft) 0,00 %
01.10.2014 23:45 14,1 C 89 % 1025,6 hPa 0,0 l/m 0,0 km/h (0 Bft) S-SW 194 0 min 0,000 mm 0,0 UV-I 0 W/m 12,3 C 14,1 C 0,0 km/h (0 Bft) 0,00 %
_ Min-Zeit 06:45 13:30 15:00 - 00:00 - - - - - - 07:00 06:45 00:00 00:00
Minimum _ 13,7 C 78 % 1023,4 hPa - 0,0 km/h (0 Bft) - - - - - - 11,4 C 13,7 C 0,0 km/h (0 Bft) 0,00 %
_ Max-Zeit 13:30 22:45 23:45 18:45 00:00 - - 00:00 00:00 13:15 13:15 13:30 13:30 00:00 00:00
Maximum _ 17,5 C 89 % 1025,6 hPa 6,3 l/m 0,0 km/h
S (0 Bft)
- - 0 min 0,000 mm 3,0 UV-I 256 W/m 13,6 C 17,5 C 0,0 km/h
S (0 Bft)
0,00 %
Durchschnitt _ 15,1 C 85 % 1024,3 hPa #24,0 l/m 0,0 km/h (0 Bft) - - - #0 min. #0,000 mm 1,4 UV-I 108 W/m 12,5 C 15,1 C 0,0 km/h (0 Bft) 0,00 %